Regional Weather Roundup
Issued by NWS

Home | Current Version | Previous Version | Text Only | Print | Product List | Glossary On
Versions: 1 2 3 4 5 6 7 8 9 10 11 12 13 14 15 16 17 18 19 20 21 22 23 24 25 26 27 28 29 30 31 32 33 34 35 36 37 38 39 40 41 42 43 44 45 46 47 48 49 50
000
ASUS45 KABQ 231501
RWRNM
WEATHER ROUNDUP FOR NEW MEXICO
NATIONAL WEATHER SERVICE ALBUQUERQUE NM
800 AM MST SUN NOV 23 2014

NOTE: "FAIR" MEANS FEW OR NO CLOUDS BELOW 12,000 FEET AGL WITH NO
       SIGNIFICANT WEATHER OR OBSTRUCTIONS TO VISION.

      THIS PRODUCT IS RELEASED AS TWO VERSIONS.  ONE VERSION NEAR
      THE TOP OF THE HOUR CONTAINING PRELIMINARY DATA FROM ALBUQUERQUE
      AND OTHER STATIONS.  A FINAL VERSION WITH ADDITIONAL DATA IS
      ISSUED ABOUT 10 MINUTES AFTER THE HOUR.

NMZ501-503-504-510>518-231600-
NORTHWEST PLATEAU/NORTHCENTRAL MOUNTAINS

CITY           SKY/WX    TMP DP  RH WIND       PRES   REMARKS
FARMINGTON     PTCLDY    38  25  59 W15       29.88R WCI  29
SANTA FE       MOSUNNY   38  21  50 SW8       29.78R WCI  32
TAOS           CLOUDY    32  25  74 N17G23    29.78R WCI  21

$$
NMZ402-403-502-505>509-231600-
WESTCENTRAL MOUNTAINS/SOUTHWEST MOUNTAINS

CITY           SKY/WX    TMP DP  RH WIND       PRES   REMARKS
GALLUP         LGT SNOW  33  27  78 NW13      29.97S WCI  24
SILVER CITY    SUNNY     45  23  42 NW18G26   29.98R

$$
NMZ407-409-411-412-231600-
SOUTHERN DESERTS

CITY           SKY/WX    TMP DP  RH WIND       PRES   REMARKS
DEMING         SUNNY     51  24  34 W22G29    29.94R
HOLLOMAN AFB   MOSUNNY   43  18  36 SE7       29.86R
T OR C         SUNNY     44  20  38 CALM      29.88R

$$
NMZ519>523-231600-
CENTRAL VALLEYS/CENTRAL HIGHLANDS

CITY           SKY/WX    TMP DP  RH WIND       PRES   REMARKS
ALBUQUERQUE    MOSUNNY   44  24  45 NW26G32   29.88R
DOUBLE EAGLE   MOSUNNY   37  28  70 NW23G30   29.88R WCI  26
CLINES CORNERS MOSUNNY   37  21  52 NW23G29   29.78R WCI  26
BELEN          FAIR      46  23  40 W17G24    29.87R
SOCORRO        NOT AVBL

$$
NMZ524>526-539-540-231600-
SOUTHCENTRAL MOUNTAINS

CITY           SKY/WX    TMP DP  RH WIND       PRES   REMARKS
RUIDOSO        NOT AVBL

$$
NMZ527>531-231600-
NORTHEAST HIGHLANDS/NORTHEAST PLAINS

CITY           SKY/WX    TMP DP  RH WIND       PRES   REMARKS
LAS VEGAS      MOSUNNY   42  21  43 W26G37    29.68F
RATON          PTSUNNY   38  27  64 NE13      29.69R WCI  30
CLAYTON        CLOUDY    43  28  55 N23G38    29.65R

$$
NMZ532>537-231600-
EASTCENTRAL PLAINS

CITY           SKY/WX    TMP DP  RH WIND       PRES   REMARKS
TUCUMCARI        N/A     52  22  30 W15G29    29.61R
CANNON AFB     SUNNY     49  19  30 W22       29.66F
CLOVIS AIRPORT SUNNY     52  19  28 W31G40    29.62S

$$
NMZ028-029-538-231600-
SOUTHEAST PLAINS

CITY           SKY/WX    TMP DP  RH WIND       PRES   REMARKS
ROSWELL        SUNNY     56  19  23 CALM      29.72R
CARLSBAD       SUNNY     61  20  20 W32G45    29.71S
HOBBS          SUNNY     54  19  26 W21G28    29.73R


$$


USA.gov is the U.S. government's official web portal to all federal, state and local government web resources and services.